Flag for France Weather past 2 weeks in Paris, France

Now
59 °F

Broken clouds.


Feels Like: 56 °F
Forecast: 50 / 55 °F
Wind: 16 mph from Southwest

Location: Villacoublay

Current Time: Mar 28, 2015 at 5:01:51 PM

Latest Report: Mar 28, 2015 at 4:30 PM


Visibility: N/A

Pressure: 30.04 "Hg

Humidity: 72%

Dew point: 50 °F

Location of ParisLocation

Historic Weather in Paris — Graph

°F

Paris temperature yesterday

Maximum temperature yesterday: 52 °F (at 2:00 PM)
Minimum temperature yesterday: 37 °F (at 5:00 AM)
Average temperature yesterday: 45 °F

Past Weeks' High & Low Weather Summary

 TemperatureHumidityPressure
High63 °F (Mar 17, 3:00 PM)100% (Mar 26, 2:30 PM)30.36 "Hg (Mar 26, 2:30 PM)
Low30 °F (Mar 26, 3:00 AM)32% (Mar 17, 4:30 PM)29.74 "Hg (Mar 24, 3:30 PM)
Average45 °F73%30.10 "Hg
* Reported Mar 13 4:00 PM — Mar 28 4:00 PM, Paris, Weather by CustomWeather, © 2015

Note: Actual official high and low records may vary slightly from our data, if they occured in-between our weather recording intervals... More about our weather records

Advertising

Paris weather history for previous 24 hours

 ConditionsComfort  
Time TempWeatherWind HumidityBarometerVisibility
4:00 PM
Sat, Mar 28
59 °FBroken clouds.14 mph72%30.04 "HgN/A
3:30 PM59 °FBroken clouds.13 mph72%30.04 "HgN/A
3:00 PM59 °FBroken clouds.14 mph77%30.07 "HgN/A
2:30 PM59 °FBroken clouds.14 mph77%30.07 "HgN/A
2:00 PM57 °FMostly cloudy.13 mph82%30.09 "HgN/A
1:30 PM59 °FBroken clouds.10 mph82%30.07 "HgN/A
1:00 PM57 °FOvercast.9 mph88%30.09 "HgN/A
12:30 PM54 °FLow clouds.7 mph94%30.09 "HgN/A
12:00 PM52 °FLow clouds.7 mph100%30.09 "HgN/A
11:30 AM52 °FLow clouds.9 mph94%30.09 "HgN/A
11:00 AM50 °FLow clouds.8 mph100%30.12 "HgN/A
10:30 AM50 °FMostly cloudy.7 mph100%30.12 "HgN/A
10:00 AM48 °FLow clouds.8 mph100%30.12 "HgN/A
9:30 AM48 °FLow clouds.7 mph100%30.12 "Hg4 mi
9:00 AM46 °FDrizzle. Low clouds.7 mph100%30.12 "Hg4 mi
8:30 AM46 °FDrizzle. Fog.8 mph100%30.12 "Hg2 mi
8:00 AM45 °FFog.7 mph100%30.12 "Hg2 mi
7:30 AM45 °FLow clouds.7 mph100%30.12 "Hg5 mi
7:00 AM45 °FDrizzle. Fog.6 mph100%30.12 "Hg2 mi
6:30 AM45 °FFog.8 mph100%30.12 "Hg2 mi
6:00 AM45 °FFog.7 mph100%30.12 "Hg2 mi
5:30 AM45 °FFog.7 mph100%30.15 "Hg2 mi
5:00 AM45 °FFog.7 mph100%30.15 "Hg2 mi
4:30 AM45 °FFog.7 mph100%30.15 "Hg3 mi
4:00 AM45 °FFog.6 mph93%30.15 "Hg3 mi
3:30 AM45 °FMostly cloudy.7 mph93%30.18 "Hg5 mi
3:00 AM45 °FLight rain. Mostly cloudy.6 mph93%30.18 "Hg5 mi
2:30 AM43 °FLight rain. Mostly cloudy.6 mph100%30.18 "HgN/A
2:00 AM45 °FLight rain. Overcast.6 mph87%30.21 "HgN/A
1:30 AM45 °FClear.5 mph87%30.21 "HgN/A
1:00 AM45 °FClear.5 mph87%30.21 "HgN/A
12:30 AM43 °FClear.5 mph87%30.21 "HgN/A
12:00 AM43 °FPassing clouds.5 mph87%30.21 "HgN/A
11:30 PM
Fri, Mar 27
43 °FClear.3 mph81%30.24 "HgN/A
11:00 PM43 °FClear.3 mph81%30.24 "HgN/A
10:30 PM43 °FClear.5 mph81%30.24 "HgN/A
10:00 PM45 °FClear.5 mph71%30.24 "HgN/A
9:30 PM45 °FClear.3 mph71%30.21 "HgN/A
9:00 PM45 °FClear.3 mph71%30.24 "HgN/A
8:30 PM46 °FClear.2 mph66%30.24 "HgN/A
8:00 PM46 °FPassing clouds.3 mph66%30.24 "HgN/A
7:30 PM48 °FPassing clouds.2 mph66%30.21 "HgN/A
7:00 PM48 °FPartly sunny.2 mph62%30.21 "HgN/A
6:30 PM50 °FPartly sunny.5 mph58%30.21 "HgN/A
6:00 PM50 °FPartly sunny.7 mph58%30.21 "HgN/A
5:30 PM52 °FPartly sunny.7 mph50%30.21 "HgN/A
5:00 PM52 °FMostly cloudy.5 mph50%30.21 "HgN/A
Weather by CustomWeather, © 2015

See weather overviewHow to use our weather pages